Location: Poughquag
(41.6090°N, 73.6820°W)
Time: 15:07:56
(UTC-05:00)

Vanguard 1 - Pass Details

Date: 02 December 2023
Orbit: 653 x 3825 km, 34.3° (Epoch: 03 March)

Event Time Altitude Azimuth Distance (km) Brightness Sun altitude
Rises 22:13:31 0° 274° (W) 7,244 14.8 -62.7°
Reaches altitude 10° 22:18:00 10° 272° (W) 6,486 14.4 -63.3°
Enters shadow 22:30:22 43° 256° (WSW) 4,720 13.3 -65.0°
Maximum altitude 22:40:16 64° 198° (SSW) 4,051 - -66.3°
Drops below altitude 10° 23:00:13 10° 123° (ESE) 5,891 - -68.4°
Sets 23:04:04 0° 120° (ESE) 6,580 - -68.7°
